Location: Aniagüita
(10.0946°N, 66.9708°W)
Time: 16:50:48
(UTC+00:00)

ARIANE 44P R/B - Pass Details

Date: 30 June 2022
Orbit: 378 x 35301 km, 6.9° (Epoch: 06 August)

Event Time Altitude Azimuth Distance (km) Brightness Sun altitude
Rises 22:41:05 0° 236° (SW) 2,485 6.2 1.8°
Reaches altitude 10° 22:42:34 10° 224° (SW) 1,893 5.4 1.5°
Maximum altitude 22:46:06 35° 155° (SSE) 1,609 4.4 0.7°
Drops below altitude 10° 22:59:14 10° 94° (E) 6,994 7.3 -2.3°
Sets 23:15:42 0° 87° (E) 12,893 8.7 -6.0°
